Preview of NWS' New Version of Forecast
This preview is not operational and should not be used for support decisions.

Regional Weather Roundup (RWR)

Issued by National Weather Service (NWS)

                            
000
ASUS43 KDTX 210410
RWRMI 
MICHIGAN HOURLY REGIONAL WEATHER ROUNDUP
NATIONAL WEATHER SERVICE DETROIT/PONTIAC MI
1100 PM EST WED FEB 20 2019

NOTE: "FAIR" INDICATES FEW OR NO CLOUDS BELOW 12,000 FEET WITH NO
SIGNIFICANT WEATHER AND/OR OBSTRUCTION TO VISIBILITY.

MIZ047>049-052>055-059>063-066>070-074>076-081>083-210500-
SOUTHEAST LOWER MICHIGAN
  
CITY           SKY/WX    TMP DP  RH WIND       PRES   REMARKS
ADRIAN         CLOUDY    37  34  89 W9        29.81R WCI  30          
ALMA           LGT SNOW  36  34  92 W17G28    29.73R WCI  25          
ANN ARBOR      CLOUDY    36  34  92 SW12      29.77R WCI  28          
BAD AXE        CLOUDY    34  33  96 SW10G17   29.69R WCI  26          
CARO           CLOUDY    35  34  98 SW12G17   29.69F WCI  26          
DETROIT CITY   CLOUDY    37  34  89 W12G24    29.77R WCI  29          
DETROIT        CLOUDY    36  33  89 SW13      29.79R WCI  27          
FLINT          CLOUDY    36  33  89 W12G22    29.74R WCI  28          
GROSSE ILE     CLOUDY    38  37  96 W13G21    29.78R WCI  30          
HILLSDALE      CLOUDY    37  32  84 W13G22    29.79R WCI  28          
HOWELL         CLOUDY    37  34  89 W16G22    29.75R WCI  27          

CITY           SKY/WX    TMP DP  RH WIND       PRES   REMARKS
JACKSON        CLOUDY    37  32  82 SW20G29   29.78R WCI  27          
LAMBERTVILLE   CLOUDY    38  37  95 W10G17    29.82R WCI  32          
LANSING        CLOUDY    37  33  85 W21G36    29.76R WCI  26          
LAPEER         CLOUDY    37  33  89 W13G22    29.73R WCI  28          
MASON          CLOUDY    38  33  82 W13G24    29.76R WCI  30          
MONROE         CLOUDY    37  37  97 W14       29.79R WCI  29          
MT. CLEMENS    CLOUDY    35  35 100 SW12      29.74R FOG     WCI  27  
PONTIAC        CLOUDY    35  34  96 W12       29.73S FOG     WCI  27  
PORT HOPE        N/A     35  32  88 SW10      29.67R WCI  27          
PORT HURON     CLOUDY    36  34  93 SW8       29.74R FOG     WCI  29  
TRI CITIES     CLOUDY    36  34  92 SW16      29.70R WCI  26          
MIDLAND        CLOUDY    35  33  92 SW13G21   29.69R WCI  26          
TROY           CLOUDY    34  32  92 SW7       29.78R FOG     WCI  28  
SAGINAW HB     CLOUDY    36  32  87 SW14G24   29.71R WCI  27          
$$
MIZ043>046-050>051-056>058-064>065-071>073-077>080-210500-
SOUTHWEST LOWER MICHIGAN
  
CITY           SKY/WX    TMP DP  RH WIND       PRES   REMARKS
BATTLE CREEK   CLOUDY    36  30  79 W29G40    29.80R WCI  23          
BENTON HARBOR  CLOUDY    36  30  79 SW23G30   29.84R WCI  24          
BIG RAPIDS     LGT SNOW  34  32  94 W15G21    29.70R WCI  24          
COLDWATER      CLOUDY    37  34  90 W18G26    29.82R WCI  27          
FREMONT        CLOUDY    36  31  83 W14G20    29.74R WCI  27          
HOLLAND        CLOUDY    35  32  88 W15       29.80R WCI  25          
GRAND RAPIDS   LGT SNOW  34  31  88 W21       29.78R FOG     WCI  22  
IONIA          CLOUDY    35  31  83 W23G35    29.75R WCI  24          
KALAMAZOO      CLOUDY    36  30  79 W16G29    29.82R WCI  26          
LUDINGTON      CLOUDY    35  31  87 SW13      29.70R WCI  26          
MOUNT PLEASANT LGT SNOW  36  33  92 W21G29    29.69R WCI  24          
MUSKEGON       CLOUDY    37  28  70 SW15      29.77R WCI  28          
SOUTH HAVEN    CLOUDY    37  32  84 W17G23    29.82R WCI  27          
$$
MIZ016>042-210500-
NORTHERN LOWER MICHIGAN
  
CITY           SKY/WX    TMP DP  RH WIND       PRES   REMARKS
ALPENA         CLOUDY    29  27  92 S7        29.64F WCI  22          
BEAVER ISLAND  LGT SNOW  26  25  94 SE9       29.60F WCI  17          
BELLAIRE       CLOUDY    32  28  84 S7        29.63F WCI  25          
CADILLAC       CLOUDY    32  29  90 SW15      29.64R WCI  21          
CHARLEVOIX     FLURRIES  28  26  91 S6        29.64S WCI  22          
FRANKFORT      CLOUDY    35  31  87 SW12G21   29.66R WCI  27          
GAYLORD        CLOUDY    25  24  96 SW9       29.60S FOG     WCI  15  
GRAYLING       CLOUDY    28  27  96 SW7       29.62R WCI  21          
HARBOR SPRINGS LGT SNOW  26  25  96 CALM      29.62S                  
HOUGHTON LAKE  CLOUDY    30  28  92 SW13      29.65R WCI  20          
MANISTEE       CLOUDY    35  32  88 SW13G21   29.68R WCI  26          
OSCODA         CLOUDY    32  32 100 SW12      29.65F FOG     WCI  23  
PELLSTON       LGT SNOW  26  24  92 CALM      29.62F FOG              
ROGERS CITY    CLOUDY    29  27  94 S5        29.63F WCI  24          
TRAVERSE CITY  CLOUDY    34  29  82 SW9G20    29.62S WCI  27          
$$
MIZ007>008-015-210500-
EASTERN UPPER MICHIGAN
  
CITY           SKY/WX    TMP DP  RH WIND       PRES   REMARKS
KINROSS        LGT SNOW  20  18  92 E20       29.62F FOG     WCI   4  
MACKINAC ISLAN LGT SNOW  29  29 100 SE7       29.61F WCI  22          
NEWBERRY       LGT SNOW  23  20  91 MISG      29.59F                  
S. S. MARIE    LGT SNOW  22  19  89 E8G17     29.63F FOG     WCI  12  
MUNISING         N/A     23  19  85 S9G18     29.57F WCI  13          
$$
MIZ004>006-011>014-085-210500-
CENTRAL UPPER MICHIGAN
  
CITY           SKY/WX    TMP DP  RH WIND       PRES   REMARKS
MANISTIQUE     LGT SNOW  27  21  80 SE9       29.58F WCI  17          
ESCANABA       FLURRIES  28  27  93 CALM      29.59S                  
SAWYER-GWINN   LGT SNOW  23  21  93 CALM      29.55S                  
$$
MIZ001>003-009>011-084-210500-
WESTERN UPPER MICHIGAN
  
CITY           SKY/WX    TMP DP  RH WIND       PRES   REMARKS
IRON MOUNTAIN  CLOUDY    20  17  88 W3        29.57R                  
HOUGHTON       LGT SNOW  24  21  88 E7        29.58S FOG     WCI  16  
COPPER HARBOR    N/A     26  22  84 VRB3      29.61F                  
IRONWOOD       FLURRIES  21  20  96 SW5       29.58R WCI  15          
$$

ABBREVIATIONS USED IN REMARKS
   TC - TEMPERATURE IN CELSIUS
  WCI - WIND CHILL INDEX
   HX - HEAT INDEX
  VSB - VISIBILITY